Tracking 35237 objects as of 4-Sep-2026
HD Live streaming from Space Station
objects crossing your sky now

CZ-3C DEB

Track CZ-3C DEB now!


NORAD ID: 40178
Int'l Code: 2010-057AG
Launch date: October 31, 2010
Source: People's Republic of China (PRC)
Launch site: Xichang Space Center, China (XSC)

Note: This is SATELLITE DEBRIS
Your satellite tracking list
Your tracking list is empty




NASA's NSSDC Master Catalog

Two Line Element Set (TLE):
1 40178U 10057AG  26208.47488934  .00001133  00000-0  47210-1 0  9991
2 40178  19.1043 276.9769 7229315 236.6933  10.0273  2.09831082 33010
Source of the keplerian elements: AFSPC